Location: Foligno
(42.9600°N, 12.7050°E)
Time: 05:59:58
(UTC+01:00)

ISS - Pass Details

Date: 23 January 2021
Orbit: 418 x 421 km, 51.6° (Epoch: 23 January)

Event Time Altitude Azimuth Distance (km) Brightness Sun altitude
Rises 17:53:20 0° 246° (WSW) 2,360 2.5 -8.1°
Reaches altitude 10° 17:55:27 10° 250° (WSW) 1,499 0.8 -8.5°
Maximum altitude 17:58:46 57° 331° (NNW) 499 -3.3 -9.1°
Enters shadow 18:01:48 12° 50° (NE) 1,384 -1.7 -9.6°
